Location: *
(1.3500°S, 147.5000°W)
Time: 15:37:57
(UTC+00:00)

Spelda 30 - Pass Details

Date: 07 April 2020
Orbit: 366 x 28291 km, 3.9° (Epoch: 26 May)

Event Time Altitude Azimuth Distance (km) Brightness Sun altitude
Rises 05:34:56 0° 268° (W) 4,493 8.8 -25.7°
Reaches altitude 10° 05:39:14 10° 270° (W) 2,288 7.0 -26.7°
Enters shadow 05:42:05 33° 281° (W) 826 4.2 -27.5°
